User: anonymous   Login
Location: Harbor Island
(32.3990°N, 80.4435°W)
Time: 11:14:22
(UTC-04:00)
Language:

Cosmos 1455 - Orbit

View from above orbital plane
View from above orbital plane
View from above satellite
View from above satellite

Ground track
Ground track

The orbit data is extracted from the following two-line orbital elements,

1 14032U 83037A   14297.49686676  .00006655  00000-0  38417-3 0  6676
2 14032 082.5174 319.3091 0020336 035.0682 078.0441 15.11995525714989
Epoch (UTC): 24 October 2014 11:55:29
Eccentricity: 0.0020336
inclination: 82.5174°
perigee height: 516 km
apogee height: 544 km
right ascension of ascending node: 319.3091°
argument of perigee: 35.0682°
revolutions per day: 15.11995525
mean anomaly at epoch: 78.0441°
orbit number at epoch: 71498

The dashed part of the orbit path shows where the satellite is in the earth's shadow,  

DLR